Regional Weather Roundup
Issued by NWS

Home | Current Version | Previous Version | Graphics & Text | Print | Product List | Glossary On
Versions: 1 2 3 4 5 6 7 8 9 10 11 12 13 14 15 16 17 18 19 20 21 22 23 24 25 26 27 28 29 30 31 32 33 34 35 36 37 38 39 40 41 42 43 44 45 46 47 48 49 50
539
ASUS43 KMPX 251210
RWRMN
WEATHER ROUNDUP FOR MINNESOTA
NATIONAL WEATHER SERVICE TWIN CITIES/CHANHASSEN MN
600 AM CST SAT FEB 25 2017


NOTE: "FAIR" INDICATES FEW OR NO CLOUDS BELOW 12,000 FEET WITH NO
SIGNIFICANT WEATHER AND/OR OBSTRUCTIONS TO VISIBILITY. N/A MEANS
CURRENT SKY AND/OR WEATHER CONDITIONS ARE NOT AVAILABLE.

MNZ060>063-068>070-251300-
   Twin Cities Metro

CITY           SKY/WX    TMP DP  RH WIND       PRES   REMARKS
TWIN CITIES    CLEAR     15   4  61 NW16G28   29.92R WCI  -1
6HR MIN TEMP:  15; 6HR MAX TEMP:  20;

ST PAUL        CLEAR     15   5  64 NW17G26   29.93R WCI  -1
CRYSTAL        CLEAR     14   3  61 NW16      29.91R WCI  -2
BLAINE         CLEAR     16   7  67 NW14G20   29.91R WCI   1
LAKEVILLE      CLEAR     12   7  79 NW15      29.91R WCI  -4
EDEN PRAIRIE   CLEAR     15   4  61 NW10      29.92R WCI   2
6HR MIN TEMP:  15; 6HR MAX TEMP:  21;

SOUTH ST PAUL  CLEAR     16   5  61 NW14G22   29.91R WCI   1
LAKE ELMO      FAIR      16   7  67 NW12      29.90R WCI   3
$$
MNZ001>005-007-008-013>017-022>024-027-028-251300-
   Northwest Minnesota

CITY           SKY/WX    TMP DP  RH WIND       PRES   REMARKS
BEMIDJI        CLEAR      5   1  85 W6        29.91F WCI  -6
HALLOCK        CLOUDY    16  14  93 S8        29.91F WCI   5
ROSEAU         CLOUDY     5   1  85 CALM      29.91F
WARROAD        CLEAR      1   0  92 CALM      29.91F
THIEF RVR FALL   N/A    N/A N/A N/A MISG        N/A
CROOKSTON      CLOUDY    18  16  93 S7        29.96F WCI   8
FOSSTON        MOCLDY     9   7  92 S3        29.94F
DETROIT LAKES  MOCLDY    14  12  92 W3        29.95F
MOORHEAD       CLOUDY    18  14  86 SW3       29.99F
PARK RAPIDS    CLEAR      7   0  73 NW9       29.92S WCI  -7
MAHNOMEN       CLOUDY    13  10  85 W3        29.94F
$$
MNZ006-009>011-018-025>026-251300-
   North Central Minnesota

CITY           SKY/WX    TMP DP  RH WIND       PRES   REMARKS
BAUDETTE       CLEAR      2  -3  80 W6        29.89F WCI  -9
FLAG ISLAND    CLEAR      1  -2  85 NW3       29.89F
INTL FALLS     CLEAR      2  -3  80 NW8       29.87S WCI -12
6HR MIN TEMP:   2; 6HR MAX TEMP:   5;

WASKISH        CLEAR      5   1  85 W6        29.91S WCI  -6
BIG FORK       CLEAR      3   0  85 NW3       29.87F
LONGVILLE      CLEAR      7   1  78 NW7       29.90S WCI  -5
GRAND RAPIDS   CLEAR      4   0  83 NW9       29.89S WCI -10
CRANE LAKE     MOCLDY     3   1  92 NW3       29.86F
ORR            CLEAR      1  -2  85 NW6       29.82S WCI -10
COOK           CLEAR      3   0  85 W5        29.83S WCI  -6
WALKER         FAIR       5   0  79 W5        29.91S WCI  -4
$$
MNZ012-019>021-037-251300-
   Northeast Minnesota

CITY           SKY/WX    TMP DP  RH WIND       PRES   REMARKS
DULUTH         PTCLDY     6   2  83 NW12      29.79R WCI  -9
6HR MIN TEMP:   6; 6HR MAX TEMP:  13; 6HR PCP: TRACE;

ELY            CLOUDY     7   1  78 NW8G17    29.78S WCI  -6
HIBBING        PTCLDY     4   1  88 NW16      29.83S WCI -15
EVELETH        LGT SNOW   7   0  75 NW7G18    29.82S WCI  -5
DULUTH HARBOR  CLEAR     10   3  72 NW12G21   29.87S WCI  -4
TWO HARBORS    CLEAR     10   3  72 NW13G23   29.76R WCI  -5
SILVER BAY     CLEAR     10   3  72 NW12G23   29.72R WCI  -4
GRAND MARAIS     N/A     13   3  64 N23G47    29.66F WCI  -6
G MARAIS ARPRT LGT SNOW   5  -2  72 NW12G21   29.65R WCI -11
$$
MNZ029>031-032-039>041-046>048-054>057-064-251300-
   West Central Minnesota

CITY           SKY/WX    TMP DP  RH WIND       PRES   REMARKS
FERGUS FALLS   PTCLDY    12  10  92 NW5       30.04F WCI   4
WHEATON        CLEAR     14  10  85 W3        30.03F
MORRIS         CLEAR     16  12  86 W8        29.99F WCI   5
ALEXANDRIA     CLEAR     12   5  73 NW9       29.96S WCI   0
ELBOW LAKE     FAIR      14  12  92 NW7       29.99S WCI   3
WADENA         CLEAR     10   5  79 W7        29.94S WCI   0
GLENWOOD       CLEAR     12   7  79 NW12      29.96F WCI  -2
APPLETON       CLEAR     18  12  79 W6        30.02S WCI   9
BENSON         CLEAR     16  10  79 N7        30.01F WCI   6
ORTONVILLE       N/A     16  10  79 CALM      30.01F
MADISON        CLEAR     19  14  79 W7        30.03S WCI  10
WILLMAR        FAIR      18  10  73 NW14      29.99S WCI   4
$$
MNZ033>034-036-042>043-049>051-058-059-251300-
   Central Minnesota

CITY           SKY/WX    TMP DP  RH WIND       PRES   REMARKS
ST CLOUD       CLEAR     12   4  70 NW10      29.94R WCI  -1
6HR MIN TEMP:  12; 6HR MAX TEMP:  18;

SAUK CENTRE    FAIR      13   5  71 NW8       29.95S WCI   1
PAYNESVILLE    CLEAR     14   7  72 NW8       29.96S WCI   3
AITKIN         CLEAR     10   0  61 NW6       29.89S WCI   1
PINE RIVER     CLEAR      9   1  72 NW5       29.95S WCI   0
BRAINERD       CLEAR      9   1  70 NW9       29.92S WCI  -4
STAPLES        CLEAR     10   3  72 NW10      29.93S WCI  -3
LONG PRAIRIE   FAIR      12   5  73 W9        29.94S WCI   0
LITTLE FALLS   CLEAR     12   3  67 NW6       29.95R WCI   3
LITCHFIELD     CLEAR     16   7  67 NW12G18   29.96S WCI   3
BUFFALO        CLEAR     14   4  64 W9        29.95S WCI   2
MAPLE LAKE     CLEAR     15   7  71 NW9G16    29.95S WCI   3
HUTCHINSON     PTCLDY    16   8  71 NW13      29.97S WCI   2
$$
MNZ037-044-045-052-053-251300-
   East Central Minnesota

CITY           SKY/WX    TMP DP  RH WIND       PRES   REMARKS
PRINCETON      CLEAR     12   5  73 NW14G20   29.92S WCI  -3
MORA           CLEAR     12   5  73 NW14      29.91S WCI  -3
CAMBRIDGE      CLEAR     14   3  62 NW10      29.89S WCI   1
RUSH CITY      CLEAR     12   3  67 NW10G16   29.89S WCI  -1
MOOSE LAKE     CLEAR     10   3  72 NW9       29.85S WCI  -2
HINCKLEY       FAIR      12   5  73 NW10      29.88S WCI  -1
CLOQUET        CLEAR      7   1  78 NW10      29.82S WCI  -8
MCGREGOR       CLEAR      9   5  85 NW7       29.88S WCI  -3
$$
MNZ071>073-080-081-089-090-097-098-251300-
   Southwest Minnesota

CITY           SKY/WX    TMP DP  RH WIND       PRES   REMARKS
MONTEVIDEO     CLEAR     16  10  79 N7        30.03S WCI   6
CANBY          CLEAR     17  13  83 CALM      30.03S
MARSHALL       CLEAR     15  10  80 NW10      30.02S WCI   2
REDWOOD FALLS  CLEAR     17   8  67 NW15G21   29.99F WCI   2
OLIVIA         CLEAR     18  10  73 NW10      29.99S WCI   6
PIPESTONE      CLEAR     16  10  79 NW7       29.99F WCI   6
WINDOM         CLEAR     16   9  73 NW13      29.98R WCI   2
WORTHINGTON    CLEAR     13   8  81 NW12      30.00R WCI  -1
JACKSON        PTCLDY    14   9  79 NW15      29.98S WCI  -1
TRACY          CLEAR     17  13  82 NW10G16   30.00S WCI   5
SLAYTON        CLEAR     14  10  83 NW10      29.99S WCI   1
$$
MNZ065>067-074>077-082>085-091>093-251300-
   South Central Minnesota

CITY           SKY/WX    TMP DP  RH WIND       PRES   REMARKS
MANKATO          N/A     15   7  70 NW17      29.95R WCI  -1
NEW ULM        CLEAR     16   7  67 NW17G23   29.97S WCI   0
ST JAMES       CLEAR     14   9  79 NW15      29.99R WCI  -1
FAIRMONT       CLEAR     13   7  77 NW18      29.97R WCI  -4
GLENCOE        CLEAR     17  10  74 NW14G24   29.95S WCI   3
FARIBAULT      CLEAR     14   7  73 NW12G20   29.91S WCI   0
OWATONNA       CLEAR     12   5  73 NW15      29.90S WCI  -4
WASECA         CLEAR     14   9  79 NW13      29.94R WCI   0
ALBERT LEA     CLEAR     12   9  85 NW9G18    29.90S WCI   0
$$
MNZ078>079-086>088-094>096-251300-
   Southeast Minnesota

CITY           SKY/WX    TMP DP  RH WIND       PRES   REMARKS
ROCHESTER      CLEAR      9   3  77 NW16      29.86R WCI  -8
6HR MIN TEMP:   8; 6HR MAX TEMP:  17;

RED WING       CLEAR     14   1  57 NW6       29.89R WCI   5
STANTON        CLEAR     15   6  66 NW17      29.89S WCI  -1
WINONA         CLEAR     18   9  68 NW17G28   29.87R WCI   2
AUSTIN         CLEAR     12   7  79 NW13      29.88S WCI  -3
PRESTON        CLEAR     11   3  71 NW17      29.85R WCI  -7
$$
ABBREVIATIONS USED IN REMARKS
   TC - TEMPERATURES IN CELSIUS
  WCI - WIND CHILL INDEX
   HX - HEAT INDEX
  VSB - VISIBILITY
$$




USA.gov is the U.S. government's official web portal to all federal, state and local government web resources and services.